PGT101P LTFJ-LTFJ

Flight info

Callsign PGT101P
Flight time N/A
Altitude 3000
Route SBH
Aircraft A21N/M-SDE3FGHIRWY/LB1

Departure

Time 2026-05-01 12:24
Airport Istanbul Sabiha Gökçen International Airport (LTFJ)

Arrival

Time N/A
Airport Istanbul Sabiha Gökçen International Airport (LTFJ)
Time Latitude Longitude Altitude Speed Heading
2026-05-01 12:09 40.89405 29.31283 321 ft 0 kts 245°
2026-05-01 12:16 40.89405 29.31285 322 ft 1 kts 245°
2026-05-01 12:16 40.89412 29.31303 322 ft 2 kts 245°
2026-05-01 12:16 40.89418 29.31319 322 ft 0 kts 245°
2026-05-01 12:16 40.89423 29.31333 322 ft 2 kts 233°
2026-05-01 12:17 40.89434 29.31347 322 ft 2 kts 214°
2026-05-01 12:17 40.89447 29.31356 322 ft 2 kts 196°
2026-05-01 12:17 40.89463 29.31359 322 ft 2 kts 178°
2026-05-01 12:17 40.89478 29.31356 322 ft 2 kts 160°
2026-05-01 12:18 40.89484 29.31352 321 ft 1 kts 151°
2026-05-01 12:18 40.89487 29.31350 321 ft 0 kts 153°
2026-05-01 12:20 40.89486 29.31351 321 ft 1 kts 153°
2026-05-01 12:20 40.89465 29.31364 321 ft 5 kts 155°
2026-05-01 12:21 40.89417 29.31394 321 ft 9 kts 154°
2026-05-01 12:21 40.89350 29.31436 321 ft 11 kts 155°
2026-05-01 12:21 40.89267 29.31480 321 ft 13 kts 181°
2026-05-01 12:21 40.89184 29.31431 322 ft 14 kts 166°
2026-05-01 12:22 40.89166 29.31543 322 ft 16 kts 63°
2026-05-01 12:22 40.89189 29.31637 321 ft 5 kts 148°
2026-05-01 12:22 40.89138 29.31648 322 ft 9 kts 162°
2026-05-01 12:22 40.89125 29.31728 321 ft 10 kts 94°
2026-05-01 12:23 40.89118 29.31838 321 ft 13 kts 97°
2026-05-01 12:23 40.89117 29.31968 321 ft 14 kts 71°
2026-05-01 12:23 40.89187 29.32163 322 ft 55 kts 63°
2026-05-01 12:23 40.89504 29.33045 327 ft 148 kts 63°
2026-05-01 12:24 40.89979 29.34383 1078 ft 167 kts 62°
2026-05-01 12:24 40.90427 29.35681 1734 ft 147 kts 60°
2026-05-01 12:24 40.90845 29.36899 1870 ft 141 kts 60°
2026-05-01 12:24 40.91107 29.38155 1837 ft 147 kts 84°
2026-05-01 12:25 40.90610 29.39423 1789 ft 169 kts 133°
2026-05-01 12:25 40.88217 29.40350 1810 ft 187 kts 178°
2026-05-01 12:25 40.86959 29.39805 1752 ft 191 kts 213°
2026-05-01 12:26 40.86080 29.38529 1732 ft 186 kts 244°